Погода в Евдакове

Россия / Воронежская область     50°45′09″N   39°23′33″E
темп.,
°C
ветер,
м/с
пор.,
м/с
влажн.,
%
обл.,
%
осадки,
мм/ч
давл.,
гПа
погр.,
м
7 марта, вс
вс700:00−6сз48730 0.0 1020667
03:00−6з48800 0.0 1020539
06:00−6зюз38890 0.0 1020285
09:00−4зюз6108111 0.0 1018776
12:00−2зюз8125983 0.0 10161181
15:00−1юз9154992 0.0 10121180
18:00−1юз91756100 0.0 10091143
21:00−1зюз101879100 0.0 10071184
8 марта, пн
пн800:00−1зюз101693100 0.4 1007981
03:00−1зюз8149299 0.6 1007845
06:00−1зюз7129698 0.9 1006726
09:00−1зюз8138899 1.4 1006915
12:000зюз81289100 0.3 10061016
15:00+1з7117399 1.3 10061296
18:00−1зсз5107691 0.1 1007472
21:00−4сз498060 0.2 1009497
9 марта, вт
вт900:00−4зсз378424 0.0 1010426
03:00−4з369059 0.1 1011543
06:00−5зсз479096 0.1 1012465
09:00−6сз468798 0.2 1014549
12:00−5сз567197 0.1 1015961
15:00−4сз566799 0.1 10161154
18:00−6сз5771100 0.1 10171022
21:00−7сз587698 0.1 1020808
10 марта, ср
ср1000:00−8ссз467670 0.0 1020806
03:00−9сз458384 0.1 1022650
06:00−10сз4685100 0.1 1023515
09:00−10ссз467986 0.1 1025525
12:00−8ссз456048 0.0 1026834
15:00−7ссз455043 0.0 1026957
18:00−8с345498 0.0 1026766
21:00−9ссв346188 0.0 1027523
11 марта, чт
чт1100:00−11всв347780 0.0 1028385
03:00−12всв337461 0.0 1029246
06:00−13в237411 0.0 1030199
09:00−12вюв235914 0.0 1031316
12:00−8ююв224732 0.0 1031594
15:00−6ююв234532 0.0 1030742
18:00−6ююв23510 0.0 1029262
21:00−7ююв48540 0.0 1030280